Waarnemingen

Advertentie
Mijn weer
Metz-Nancy-Lorraine, Frankrijk (7093): temperatuur & dauwpunt: 19.04.2018 12:00:00 - 25.04.2018 12:00:00 (CEST)Metz-Nancy-Lorraine, Frankrijk (7093): windsnelheid & windstoten: 19.04.2018 12:00:00 - 25.04.2018 12:00:00 (CEST)Metz-Nancy-Lorraine, Frankrijk (7093): windrichting: 19.04.2018 12:00:00 - 25.04.2018 12:00:00 (CEST)Metz-Nancy-Lorraine, Frankrijk (7093): luchtdruk: 19.04.2018 12:00:00 - 25.04.2018 12:00:00 (CEST)Metz-Nancy-Lorraine, Frankrijk (7093): zicht: 19.04.2018 12:00:00 - 25.04.2018 12:00:00 (CEST)Metz-Nancy-Lorraine, Frankrijk (7093): Zonneschijnduur: 19.04.2018 12:00:00 - 25.04.2018 12:00:00 (CEST)Metz-Nancy-Lorraine, Frankrijk (7093): neerslag: 19.04.2018 12:00:00 - 25.04.2018 12:00:00 (CEST)
Datum & Tijd tt [°C] td [°C] ff [km/u] ff [kn] fx [km/u] fx [kn] dd ppp [hPa] vv [km] sd [min] rr [mm]
25.04.2018 12:00:00 14,3 9,1 30 16 43 23 WZW 1015,3 31 3 0,0
25.04.2018 11:00:00 15,4 10,8 28 15 39 21 WZW 1014,8 16 10 0,0
25.04.2018 10:00:00 14,2 10,0 24 13 38 21 WZW 1014,5 19 5 0,0
25.04.2018 09:00:00 13,7 10,1 21 11 33 18 WZW 1014,2 19 37 0,0
25.04.2018 08:00:00 12,2 9,6 17 9 30 16 ZZW 1014,1 20 60 0,0
25.04.2018 07:00:00 10,8 8,9 19 10 28 15 Z 1013,5 20 0 0,0
25.04.2018 06:00:00 11,3 8,9 18 10 27 15 ZW 1013,6 27 0 0,0
25.04.2018 05:00:00 10,4 8,0 19 10 32 17 ZZW 1013,2 20 0 0,0
25.04.2018 04:00:00 11,1 8,0 23 13 31 17 ZZW 1013,3 28 0 0,0
25.04.2018 03:00:00 11,5 8,4 21 11 27 15 Z 1013,6 34 0 0,0
25.04.2018 02:00:00 11,3 8,0 16 9 21 11 Z 1014,0 37 0 0,0
25.04.2018 01:00:00 12,4 8,7 16 9 18 10 Z 1014,3 41 0 0,0
25.04.2018 00:00:00 12,3 8,4 14 7 16 9 Z 1014,7 39 0 0,0
24.04.2018 23:00:00 12,5 7,8 8 4 10 6 ZZW 1015,2 54 0 0,0
24.04.2018 22:00:00 14,2 8,6 8 4 12 6 ZW 1015,1 58 0 0,0
24.04.2018 21:00:00 15,3 8,5 9 5 12 6 ZW 1015,1 59 11 0,0
24.04.2018 20:00:00 17,8 8,9 9 5 18 10 W 1015,2 59 48 0,0
24.04.2018 19:00:00 19,2 9,1 15 8 26 14 W 1015,4 47 60 0,0
24.04.2018 18:00:00 20,1 8,4 20 11 33 18 ZW 1015,8 29 60 0,0
24.04.2018 17:00:00 20,1 7,8 19 11 33 18 WZW 1016,3 20 60 0,0
24.04.2018 16:00:00 20,0 7,7 16 8 31 17 ZW 1017,2 20 60 0,0
24.04.2018 15:00:00 18,7 7,8 21 11 39 21 WZW 1018,4 20 58 0,0
24.04.2018 14:00:00 17,8 7,8 19 11 32 17 WZW 1019,1 19 48 0,0
24.04.2018 13:00:00 17,1 9,5 13 7 30 16 W 1019,9 20 53 0,0
24.04.2018 12:00:00 15,9 8,4 16 8 26 14 WZW 1020,2 17 57 0,0
24.04.2018 11:00:00 14,3 8,3 11 6 24 13 WNW 1020,4 20 58 0,0
24.04.2018 10:00:00 13,1 8,4 10 5 21 11 WNW 1020,7 20 58 0,0
24.04.2018 09:00:00 11,5 9,2 10 5 16 9 WZW 1020,7 14 55 0,0
24.04.2018 08:00:00 9,7 8,6 9 5 16 9 Z 1020,5 7 58 0,0
24.04.2018 07:00:00 8,5 7,3 10 5 11 6 Z 1020,3 8 7 0,0
24.04.2018 06:00:00 9,6 8,4 9 5 12 7 ZW 1020,4 8 0 0,0
24.04.2018 05:00:00 9,2 8,1 6 3 14 8 WZW 1020,4 7 0 0,0
24.04.2018 04:00:00 8,8 7,9 10 5 14 8 ZZW 1020,3 8 0 0,0
24.04.2018 03:00:00 9,5 8,3 14 7 19 10 ZZW 1020,2 11 0 0,0
24.04.2018 02:00:00 10,8 8,9 14 8 20 11 ZZW 1020,0 13 0 0,0
24.04.2018 01:00:00 10,9 9,2 14 7 19 10 ZZW 1019,9 14 0 0,0
24.04.2018 00:00:00 11,1 9,0 15 8 18 10 ZZW 1019,9 18 0 0,0
23.04.2018 23:00:00 11,2 8,8 13 7 15 8 ZW 1019,6 24 0 0,0
23.04.2018 22:00:00 13,3 9,7 10 6 21 12 WZW 1019,1 28 0 0,0
23.04.2018 21:00:00 14,5 10,1 16 9 21 11 WZW 1018,5 32 5 0,0
23.04.2018 20:00:00 16,2 10,9 15 8 31 17 WNW 1018,0 33 12 0,0
23.04.2018 19:00:00 17,7 11,5 22 12 33 18 WNW 1017,5 31 9 0,0
23.04.2018 18:00:00 18,1 10,9 25 13 35 19 W 1017,3 29 11 0,0
23.04.2018 17:00:00 19,8 11,8 16 9 33 18 W 1016,7 20 44 0,0
23.04.2018 16:00:00 18,9 13,1 21 11 33 18 WNW 1016,9 20 12 0,0
23.04.2018 15:00:00 19,6 12,8 25 14 39 21 WNW 1017,1 19 5 0,0
23.04.2018 14:00:00 19,2 13,4 19 10 29 16 W 1017,0 18 5 0,0
23.04.2018 13:00:00 18,5 14,2 16 9 25 13 ZW 1017,2 18 1 0,0
23.04.2018 12:00:00 18,0 13,5 16 9 24 13 ZW 1017,3 18 39 0,0
23.04.2018 11:00:00 17,7 13,8 17 9 24 13 WZW 1017,2 18 7 0,0
23.04.2018 10:00:00 16,8 12,9 16 9 26 14 W 1016,8 19 20 0,0
23.04.2018 09:00:00 16,5 13,6 11 6 21 11 ZZW 1016,4 19 19 0,0
23.04.2018 08:00:00 14,7 13,1 16 8 23 12 ZZW 1016,3 18 0 0,0
23.04.2018 07:00:00 15,4 12,5 10 6 25 14 WZW 1015,4 28 0 0,2
23.04.2018 06:00:00 14,9 12,6 5 3 46 25 W 1015,2 20 0 2,2
23.04.2018 05:00:00 15,9 11,1 13 7 19 10 ZW 1014,9 40 0 0,0
23.04.2018 04:00:00 16,5 10,6 15 8 26 14 ZW 1014,8 41 0 0,0
23.04.2018 03:00:00 16,5 10,3 17 9 24 13 ZZW 1014,7 42 0 0,0
23.04.2018 02:00:00 16,0 9,6 18 10 22 12 ZZW 1014,6 44 0 0,0
23.04.2018 01:00:00 16,6 9,5 18 10 23 13 Z 1014,7 48 0 0,0
23.04.2018 00:00:00 16,4 10,0 19 10 23 12 ZZW 1014,5 45 0 0,0
22.04.2018 23:00:00 17,5 9,9 19 10 24 13 ZW 1014,1 46 0 0,0
22.04.2018 22:00:00 18,5 9,8 14 8 19 10 ZW 1013,9 45 0 0,0
22.04.2018 21:00:00 20,1 9,3 15 8 20 11 ZW 1013,4 47 0 0,0
22.04.2018 20:00:00 20,9 9,5 14 7 24 13 ZW 1013,0 20 0 0,0
22.04.2018 19:00:00 23,4 9,0 16 9 31 17 WZW 1012,4 45 43 0,0
22.04.2018 18:00:00 24,2 9,7 16 9 34 18 WZW 1012,3 50 7 0,0
22.04.2018 17:00:00 26,0 10,2 22 12 39 21 WZW 1012,0 27 43 0,0
22.04.2018 16:00:00 26,1 8,6 27 15 43 23 WZW 1012,4 13 46 0,0
22.04.2018 15:00:00 25,5 9,3 24 13 39 21 ZW 1012,8 15 43 0,0
22.04.2018 14:00:00 26,0 13,1 21 11 32 17 ZZW 1013,1 15 54 0,0
22.04.2018 13:00:00 24,4 14,8 21 11 30 16 ZZW 1013,6 15 60 0,0
22.04.2018 12:00:00 22,7 14,3 18 10 28 15 Z 1014,2 16 55 0,0
22.04.2018 11:00:00 21,0 13,2 17 9 30 16 Z 1014,6 16 55 0,0
22.04.2018 10:00:00 19,2 12,5 14 8 28 15 ZZO 1014,7 12 60 0,0
22.04.2018 09:00:00 16,6 12,1 14 8 23 12 ZZO 1015,0 11 60 0,0
22.04.2018 08:00:00 14,6 11,2 12 7 19 10 ZO 1015,5 12 58 0,0
22.04.2018 07:00:00 13,0 9,4 5 3 10 6 O 1015,5 16 5 0,0
22.04.2018 06:00:00 12,1 9,5 2 1 6 3 ONO 1015,6 19 0 0,0
22.04.2018 05:00:00 12,0 9,4 3 2 6 3 W 1016,0 16 0 0,0
22.04.2018 04:00:00 13,5 9,7 3 2 17 9 ZW 1015,9 19 0 0,0
22.04.2018 03:00:00 15,3 10,1 15 8 17 9 OZO 1016,0 19 0 0,0
22.04.2018 02:00:00 14,7 10,1 7 4 11 6 ZZO 1016,5 24 0 0,0
22.04.2018 01:00:00 14,7 10,3 11 6 16 9 ZZO 1017,0 22 0 0,0
22.04.2018 00:00:00 15,8 10,1 8 4 8 5 ZZO 1017,0 29 0 0,0
21.04.2018 23:00:00 18,8 9,6 6 4 8 5 WZW 1016,9 40 0 0,0
21.04.2018 22:00:00 17,5 10,4 4 2 6 3 Z 1017,0 35 0 0,0
21.04.2018 21:00:00 19,5 10,8 3 2 4 2 ZZO 1016,7 42 0 0,0
21.04.2018 20:00:00 24,2 10,8 0 0 8 4 N 1016,1 18 28 0,0
21.04.2018 19:00:00 25,7 10,3 3 2 15 8 ZW 1016,2 44 60 0,0
21.04.2018 18:00:00 26,1 12,9 9 5 15 8 WNW 1016,5 33 60 0,0
21.04.2018 17:00:00 26,7 11,2 4 2 12 6 OZO 1016,9 20 60 0,0
21.04.2018 16:00:00 26,4 12,5 3 2 9 5 OZO 1017,6 19 60 0,0
21.04.2018 15:00:00 26,2 15,0 4 2 13 7 O 1018,2 18 60 0,0
21.04.2018 14:00:00 24,8 14,0 5 3 11 6 ONO 1018,8 18 60 0,0
21.04.2018 13:00:00 24,7 14,8 3 2 12 7 NO 1019,4 18 60 0,0
21.04.2018 12:00:00 23,2 14,7 3 1 15 8 NW 1020,1 15 60 0,0
21.04.2018 11:00:00 21,6 13,8 3 2 12 6 NNW 1020,5 14 60 0,0
21.04.2018 10:00:00 17,9 13,6 5 3 10 5 W 1020,9 13 60 0,0
21.04.2018 09:00:00 17,9 12,3 0 0 5 3 N 1020,8 14 60 0,0
21.04.2018 08:00:00 14,4 11,0 0 0 4 2 N 1021,2 11 60 0,0
21.04.2018 07:00:00 11,5 8,7 4 2 7 4 N 1021,1 13 3 0,0
21.04.2018 06:00:00 12,4 8,5 3 1 6 3 N 1020,6 16 0 0,0
21.04.2018 05:00:00 12,6 9,8 4 2 8 4 WNW 1020,7 22 0 0,0
21.04.2018 04:00:00 13,7 9,7 7 4 12 6 WZW 1020,7 13 0 0,0
21.04.2018 03:00:00 14,9 10,3 11 6 14 8 ZW 1020,7 28 0 0,0
21.04.2018 02:00:00 14,6 10,0 8 4 10 6 ZZW 1021,1 27 0 0,0
21.04.2018 01:00:00 15,2 10,4 7 4 10 5 ZW 1021,2 28 0 0,0
21.04.2018 00:00:00 15,7 8,9 7 4 9 5 ZW 1021,4 35 0 0,0
20.04.2018 23:00:00 19,3 10,3 7 4 14 7 W 1021,2 33 0 0,0
20.04.2018 22:00:00 17,5 9,9 7 4 9 5 ZW 1021,5 33 0 0,0
20.04.2018 21:00:00 19,7 10,1 8 4 11 6 ZW 1021,0 33 0 0,0
20.04.2018 20:00:00 22,0 12,0 9 5 10 5 ZZW 1020,6 31 34 0,0
20.04.2018 19:00:00 25,0 9,3 5 3 8 4 Z 1020,5 20 53 0,0
20.04.2018 18:00:00 27,2 9,5 3 1 10 6 W 1020,6 20 60 0,0
20.04.2018 17:00:00 26,8 9,6 5 3 14 7 N 1021,1 33 60 0,0
20.04.2018 16:00:00 26,2 10,8 4 2 11 6 NNW 1021,7 20 60 0,0
20.04.2018 15:00:00 25,8 10,0 3 2 19 10 ONO 1022,3 18 60 0,0
20.04.2018 14:00:00 24,6 11,5 6 3 16 8 NNW 1022,9 18 60 0,0
20.04.2018 13:00:00 23,2 12,8 7 4 13 7 NW 1023,4 16 60 0,0
20.04.2018 12:00:00 21,3 12,2 6 3 13 7 NNW 1023,8 19 60 0,0
20.04.2018 11:00:00 20,1 11,8 5 3 10 5 NW 1024,1 18 60 0,0
20.04.2018 10:00:00 17,7 11,5 3 2 8 4 NNO 1024,1 18 60 0,0
20.04.2018 09:00:00 15,3 10,1 2 1 8 5 N 1024,3 19 60 0,0
20.04.2018 08:00:00 13,5 8,8 0 0 5 3 N 1024,4 15 60 0,0
20.04.2018 07:00:00 11,9 7,8 3 2 5 3 NNW 1024,3 19 2 0,0
20.04.2018 06:00:00 12,3 8,0 4 2 6 3 NNO 1024,1 21 0 0,0
20.04.2018 05:00:00 12,2 8,3 3 1 5 3 NW 1024,3 25 0 0,0
20.04.2018 04:00:00 14,3 8,3 3 1 8 4 NNO 1024,3 26 0 0,0
20.04.2018 03:00:00 15,0 8,5 4 2 14 8 N 1024,4 32 0 0,0
20.04.2018 02:00:00 15,9 9,1 5 3 9 5 NW 1024,6 37 0 0,0
20.04.2018 01:00:00 15,0 8,5 4 2 21 11 NW 1024,8 38 0 0,0
20.04.2018 00:00:00 18,6 8,3 11 6 14 8 ONO 1024,7 48 0 0,0
19.04.2018 23:00:00 18,7 8,1 11 6 17 9 NO 1024,8 54 0 0,0
19.04.2018 22:00:00 18,4 7,8 4 2 5 3 NO 1024,9 60 0 0,0
19.04.2018 21:00:00 18,4 8,6 0 0 6 3 N 1024,7 60 0 0,0
19.04.2018 20:00:00 23,6 11,3 4 2 6 3 OZO 1024,0 15 53 0,0
19.04.2018 19:00:00 25,7 7,3 3 1 6 3 OZO 1023,9 20 60 0,0
19.04.2018 18:00:00 26,1 9,9 0 0 10 5 N 1024,1 43 60 0,0
19.04.2018 17:00:00 26,4 10,5 4 2 11 6 OZO 1024,3 20 60 0,0
19.04.2018 16:00:00 25,4 10,4 4 2 24 13 ZZW 1024,8 20 60 0,0
19.04.2018 15:00:00 25,1 10,2 8 5 18 10 O 1025,3 20 60 0,0
19.04.2018 14:00:00 24,0 8,4 9 5 23 13 Z 1025,8 18 60 0,0
19.04.2018 13:00:00 23,1 10,8 8 4 16 8 ZO 1026,1 28 60 0,0
19.04.2018 12:00:00 21,9 9,1 8 5 17 9 ZO 1026,5 37 60 0,0

tt = temperatuur
td = dauwpunt
ff = windsnelheid
fx = windstoten
dd = windrichting
ppp = luchtdruk
vv = zicht
sd = Zonneschijnduur
rr = neerslag

Weerstations in de omgeving